D166E EDDF-EGNS

Flight info

Callsign D166E
Flight time 1h 24m
Altitude 41000
Route OBOKA2D OBOKA Z28 DIBIR DCT BUDIP DCT RAVLO Y70 GOLES UL975 DESIG UL70 PENIL L10 IOM
Aircraft C750/M-SBDE3FGHRWXY/S

Departure

Time 2026-05-08 19:42
Airport Frankfurt Main Airport (EDDF)

Arrival

Time 2026-05-08 21:07
Airport Isle of Man Airport (EGNS)
Time Latitude Longitude Altitude Speed Heading
2026-05-08 19:03 50.04918 8.57086 342 ft 0 kts 96°
2026-05-08 19:34 50.04906 8.57095 345 ft 0 kts 173°
2026-05-08 19:35 50.04898 8.57096 349 ft 3 kts 178°
2026-05-08 19:35 50.04894 8.57096 348 ft 0 kts 181°
2026-05-08 19:35 50.04843 8.57068 346 ft 12 kts 206°
2026-05-08 19:35 50.04762 8.57012 344 ft 12 kts 204°
2026-05-08 19:36 50.04687 8.56960 344 ft 11 kts 204°
2026-05-08 19:36 50.04619 8.56915 344 ft 10 kts 197°
2026-05-08 19:36 50.04556 8.56893 347 ft 11 kts 192°
2026-05-08 19:36 50.04478 8.56865 342 ft 13 kts 193°
2026-05-08 19:37 50.04386 8.56839 342 ft 14 kts 189°
2026-05-08 19:37 50.04286 8.56810 342 ft 15 kts 192°
2026-05-08 19:37 50.04226 8.56689 350 ft 16 kts 249°
2026-05-08 19:37 50.04187 8.56533 345 ft 15 kts 250°
2026-05-08 19:38 50.04153 8.56387 346 ft 14 kts 250°
2026-05-08 19:38 50.04121 8.56253 346 ft 13 kts 249°
2026-05-08 19:38 50.04091 8.56129 345 ft 12 kts 249°
2026-05-08 19:38 50.04064 8.56014 346 ft 11 kts 249°
2026-05-08 19:39 50.04038 8.55907 348 ft 12 kts 250°
2026-05-08 19:39 50.03996 8.55731 342 ft 20 kts 250°
2026-05-08 19:39 50.03948 8.55524 346 ft 21 kts 250°
2026-05-08 19:39 50.03897 8.55310 344 ft 21 kts 250°
2026-05-08 19:40 50.03846 8.55100 345 ft 21 kts 248°
2026-05-08 19:40 50.03796 8.54898 342 ft 19 kts 250°
2026-05-08 19:40 50.03749 8.54692 348 ft 21 kts 249°
2026-05-08 19:40 50.03694 8.54466 342 ft 26 kts 249°
2026-05-08 19:41 50.03599 8.54320 342 ft 14 kts 165°
2026-05-08 19:41 50.03509 8.54387 347 ft 16 kts 125°
2026-05-08 19:41 50.03529 8.54576 347 ft 38 kts 69°
2026-05-08 19:41 50.03744 8.55466 350 ft 129 kts 69°
2026-05-08 19:42 50.04106 8.56974 483 ft 161 kts 68°
2026-05-08 19:42 50.04433 8.58768 852 ft 183 kts 74°
2026-05-08 19:42 50.04768 8.60769 1351 ft 198 kts 75°
2026-05-08 19:42 50.05128 8.62886 1952 ft 206 kts 75°
2026-05-08 19:43 50.05506 8.65046 2586 ft 213 kts 75°
2026-05-08 19:43 50.05906 8.67293 3229 ft 219 kts 75°
2026-05-08 19:43 50.06324 8.69601 3874 ft 224 kts 75°
2026-05-08 19:43 50.06751 8.71962 4536 ft 229 kts 75°
2026-05-08 19:44 50.07189 8.74390 5006 ft 243 kts 74°
2026-05-08 19:44 50.07663 8.77051 5004 ft 261 kts 75°
2026-05-08 19:44 50.08148 8.79776 5007 ft 262 kts 75°
2026-05-08 19:44 50.08638 8.82523 5004 ft 264 kts 74°
2026-05-08 19:45 50.09515 8.85026 4934 ft 267 kts 45°
2026-05-08 19:45 50.11156 8.86291 4913 ft 272 kts
2026-05-08 19:45 50.12959 8.85716 5739 ft 265 kts 334°
2026-05-08 19:45 50.14555 8.84325 6771 ft 265 kts 328°
2026-05-08 19:46 50.16166 8.82866 7582 ft 271 kts 328°
2026-05-08 19:46 50.17817 8.81395 8516 ft 275 kts 328°
2026-05-08 19:46 50.21100 8.78182 10055 ft 285 kts 311°
2026-05-08 19:47 50.22187 8.75516 10283 ft 303 kts 297°
2026-05-08 19:47 50.23358 8.72625 10446 ft 324 kts 303°
2026-05-08 19:47 50.24677 8.69720 10970 ft 330 kts 303°
2026-05-08 19:47 50.25935 8.66684 11482 ft 336 kts 300°
2026-05-08 19:48 50.27148 8.63584 12002 ft 342 kts 300°
2026-05-08 19:48 50.28432 8.60416 12525 ft 348 kts 302°
2026-05-08 19:48 50.29771 8.57202 12917 ft 356 kts 302°
2026-05-08 19:48 50.31114 8.53935 13503 ft 358 kts 301°
2026-05-08 19:49 50.32452 8.50627 14025 ft 362 kts 301°
2026-05-08 19:49 50.33807 8.47288 14527 ft 364 kts 301°
2026-05-08 19:49 50.35176 8.43937 15077 ft 365 kts 301°
2026-05-08 19:49 50.36386 8.40438 15516 ft 368 kts 292°
2026-05-08 19:50 50.37115 8.36606 16033 ft 368 kts 280°
2026-05-08 19:50 50.37318 8.32607 16543 ft 370 kts 268°
2026-05-08 19:50 50.36994 8.28651 17026 ft 373 kts 257°
2026-05-08 19:50 50.36168 8.24791 17704 ft 375 kts 248°
2026-05-08 19:51 50.35131 8.21025 18444 ft 378 kts 246°
2026-05-08 19:51 50.34253 8.17137 19051 ft 382 kts 255°
2026-05-08 19:51 50.33880 8.13005 19738 ft 385 kts 266°
2026-05-08 19:51 50.34043 8.08804 20407 ft 389 kts 278°
2026-05-08 19:52 50.34738 8.04694 21071 ft 394 kts 289°
2026-05-08 19:52 50.35991 8.00853 21657 ft 401 kts 304°
2026-05-08 19:52 50.37987 7.97770 22307 ft 405 kts 317°
2026-05-08 19:52 50.40146 7.94908 22936 ft 409 kts 317°
2026-05-08 19:53 50.42233 7.91859 23532 ft 411 kts 312°
2026-05-08 19:53 50.44114 7.88454 24084 ft 414 kts 308°
2026-05-08 19:53 50.45883 7.84954 24572 ft 417 kts 307°
2026-05-08 19:53 50.47782 7.81477 25088 ft 421 kts 311°
2026-05-08 19:54 50.49790 7.78108 25605 ft 424 kts 312°
2026-05-08 19:54 50.51733 7.74745 26083 ft 403 kts 310°
2026-05-08 19:54 50.53576 7.71364 26117 ft 412 kts 309°
2026-05-08 19:54 50.55441 7.67964 26118 ft 409 kts 310°
2026-05-08 19:55 50.57337 7.64626 26113 ft 410 kts 310°
2026-05-08 19:55 50.59234 7.61282 26109 ft 409 kts 310°
2026-05-08 19:55 50.61107 7.57907 26111 ft 409 kts 310°
2026-05-08 19:55 50.62975 7.54530 26112 ft 409 kts 310°
2026-05-08 19:56 50.64849 7.51171 26117 ft 409 kts 310°
2026-05-08 19:56 50.66734 7.47800 26119 ft 409 kts 310°
2026-05-08 19:56 50.68578 7.44477 26120 ft 408 kts 310°
2026-05-08 19:56 50.70446 7.41102 26122 ft 408 kts 310°
2026-05-08 19:57 50.72314 7.37733 26125 ft 408 kts 310°
2026-05-08 19:57 50.74167 7.34382 26125 ft 408 kts 310°
2026-05-08 19:57 50.75890 7.30783 26134 ft 409 kts 305°
2026-05-08 19:57 50.77511 7.27066 26626 ft 413 kts 304°
2026-05-08 19:58 50.79156 7.23313 27156 ft 417 kts 304°
2026-05-08 19:58 50.80838 7.19594 27933 ft 415 kts 305°
2026-05-08 19:58 50.82487 7.15939 28773 ft 412 kts 305°
2026-05-08 19:58 50.84121 7.12246 29643 ft 409 kts 304°
2026-05-08 19:59 50.85742 7.08570 30478 ft 405 kts 305°
2026-05-08 19:59 50.87359 7.04936 31229 ft 402 kts 305°
2026-05-08 19:59 50.88963 7.01331 31984 ft 399 kts 305°
2026-05-08 19:59 50.90546 6.97753 32744 ft 396 kts 305°
2026-05-08 20:00 50.92121 6.94187 33453 ft 394 kts 305°
2026-05-08 20:00 50.93692 6.90636 34172 ft 392 kts 305°
2026-05-08 20:00 50.95234 6.87145 34784 ft 390 kts 304°
2026-05-08 20:00 50.96783 6.83626 35417 ft 388 kts 304°
2026-05-08 20:01 50.98325 6.80123 36069 ft 386 kts 304°
2026-05-08 20:01 50.99863 6.76624 36566 ft 388 kts 304°
2026-05-08 20:01 51.01409 6.73100 37068 ft 390 kts 304°
2026-05-08 20:01 51.02957 6.69568 37584 ft 391 kts 304°
2026-05-08 20:02 51.04515 6.66010 38108 ft 392 kts 304°
2026-05-08 20:02 51.06077 6.62436 38597 ft 395 kts 304°
2026-05-08 20:02 51.07647 6.58841 39028 ft 397 kts 304°
2026-05-08 20:02 51.09223 6.55225 39428 ft 398 kts 304°
2026-05-08 20:03 51.10802 6.51597 39829 ft 400 kts 304°
2026-05-08 20:03 51.12365 6.47997 40241 ft 401 kts 304°
2026-05-08 20:03 51.13953 6.44338 40660 ft 402 kts 303°
2026-05-08 20:03 51.15546 6.40662 41076 ft 404 kts 303°
2026-05-08 20:04 51.17157 6.36936 41124 ft 415 kts 303°
2026-05-08 20:04 51.18822 6.33081 41131 ft 427 kts 303°
2026-05-08 20:04 51.20651 6.29282 41121 ft 439 kts 310°
2026-05-08 20:04 51.22762 6.25663 41141 ft 450 kts 313°
2026-05-08 20:05 51.24965 6.22019 41138 ft 461 kts 312°
2026-05-08 20:05 51.27161 6.18217 41137 ft 471 kts 311°
2026-05-08 20:05 51.31643 6.10293 41131 ft 489 kts 311°
2026-05-08 20:06 51.36331 6.02207 41132 ft 501 kts 311°
2026-05-08 20:06 51.41052 5.93883 41131 ft 508 kts 311°
2026-05-08 20:07 51.45803 5.85581 41127 ft 508 kts 311°
2026-05-08 20:07 51.50560 5.77176 41131 ft 508 kts 311°
2026-05-08 20:08 51.55296 5.68817 41135 ft 506 kts 311°
2026-05-08 20:08 51.60026 5.60420 41131 ft 506 kts 311°
2026-05-08 20:09 51.62379 5.56238 41458 ft 499 kts 311°
2026-05-08 20:09 51.64711 5.52088 41492 ft 502 kts 311°
2026-05-08 20:09 51.69417 5.43679 41592 ft 506 kts 311°
2026-05-08 20:10 51.71734 5.39535 41839 ft 503 kts 311°
2026-05-08 20:10 51.74065 5.35359 42092 ft 500 kts 310°
2026-05-08 20:10 51.76382 5.31196 42339 ft 497 kts 310°
2026-05-08 20:10 51.78683 5.27053 42594 ft 495 kts 310°
2026-05-08 20:11 51.80981 5.22915 42851 ft 494 kts 310°
2026-05-08 20:11 51.83269 5.18785 43108 ft 492 kts 310°
2026-05-08 20:11 51.85549 5.14663 43369 ft 492 kts 310°
2026-05-08 20:11 51.87827 5.10537 43635 ft 491 kts 310°
2026-05-08 20:12 51.90075 5.06459 43905 ft 491 kts 310°
2026-05-08 20:12 51.92348 5.02330 44178 ft 491 kts 310°
2026-05-08 20:12 51.94622 4.98191 44462 ft 492 kts 310°
2026-05-08 20:12 51.96894 4.94051 44748 ft 492 kts 310°
2026-05-08 20:13 51.99165 4.89904 45004 ft 492 kts 310°
2026-05-08 20:13 52.01440 4.85744 45122 ft 495 kts 310°
2026-05-08 20:13 52.06043 4.77303 45126 ft 503 kts 310°
2026-05-08 20:14 52.10705 4.68726 45137 ft 509 kts 309°
2026-05-08 20:14 52.15374 4.60108 45133 ft 512 kts 309°
2026-05-08 20:15 52.20084 4.51383 45154 ft 513 kts 309°
2026-05-08 20:15 52.24784 4.42647 45139 ft 512 kts 309°
2026-05-08 20:16 52.29476 4.33894 45148 ft 512 kts 309°
2026-05-08 20:16 52.34129 4.25184 45150 ft 512 kts 309°
2026-05-08 20:17 52.38804 4.16401 45150 ft 512 kts 309°
2026-05-08 20:17 52.43476 4.07594 45156 ft 512 kts 309°
2026-05-08 20:18 52.48147 3.98758 45151 ft 512 kts 309°
2026-05-08 20:18 52.52776 3.89970 45160 ft 512 kts 309°
2026-05-08 20:19 52.57429 3.81106 45158 ft 512 kts 309°
2026-05-08 20:19 52.62075 3.72223 45159 ft 512 kts 309°
2026-05-08 20:20 52.66713 3.63324 45159 ft 512 kts 309°
2026-05-08 20:20 52.71346 3.54402 45174 ft 512 kts 309°
2026-05-08 20:21 52.75941 3.45524 45167 ft 512 kts 309°
2026-05-08 20:21 52.80560 3.36566 45154 ft 512 kts 308°
2026-05-08 20:22 52.85175 3.27583 45148 ft 512 kts 308°
2026-05-08 20:22 52.88964 3.20050 45140 ft 511 kts 305°
2026-05-08 20:23 52.91396 3.13316 45141 ft 509 kts 294°
2026-05-08 20:23 52.92647 3.07852 45142 ft 507 kts 285°
2026-05-08 20:23 52.94097 2.96508 45175 ft 507 kts 280°
2026-05-08 20:24 52.95628 2.85081 45175 ft 508 kts 282°
2026-05-08 20:24 52.97108 2.73634 45173 ft 507 kts 281°
2026-05-08 20:25 52.98578 2.62188 45170 ft 508 kts 281°
2026-05-08 20:25 53.00043 2.50809 45175 ft 507 kts 281°
2026-05-08 20:26 53.01487 2.39347 45174 ft 507 kts 281°
2026-05-08 20:26 53.02938 2.27877 45175 ft 507 kts 281°
2026-05-08 20:27 53.04364 2.16397 45174 ft 508 kts 281°
2026-05-08 20:27 53.05779 2.04991 45176 ft 508 kts 281°
2026-05-08 20:28 53.07176 1.93576 45169 ft 507 kts 281°
2026-05-08 20:28 53.08565 1.82167 45168 ft 507 kts 280°
2026-05-08 20:29 53.09949 1.70675 45167 ft 507 kts 280°
2026-05-08 20:29 53.11325 1.59168 45162 ft 507 kts 280°
2026-05-08 20:30 53.12679 1.47730 45169 ft 507 kts 280°
2026-05-08 20:30 53.14035 1.36192 45167 ft 508 kts 280°
2026-05-08 20:31 53.15378 1.24652 45168 ft 508 kts 280°
2026-05-08 20:31 53.16711 1.13099 45164 ft 508 kts 280°
2026-05-08 20:32 53.18032 1.01540 45169 ft 508 kts 279°
2026-05-08 20:32 53.19335 0.90040 45167 ft 508 kts 279°
2026-05-08 20:33 53.20635 0.78458 45161 ft 508 kts 279°
2026-05-08 20:33 53.21923 0.66871 45160 ft 508 kts 279°
2026-05-08 20:34 53.23201 0.55284 45145 ft 508 kts 279°
2026-05-08 20:35 53.25103 0.37891 45132 ft 507 kts 279°
2026-05-08 20:35 53.26339 0.26370 45144 ft 508 kts 279°
2026-05-08 20:36 53.27579 0.14754 45130 ft 508 kts 279°
2026-05-08 20:36 53.29023 0.03210 45114 ft 509 kts 286°
2026-05-08 20:37 53.31947 -0.07598 45134 ft 512 kts 295°
2026-05-08 20:37 53.35103 -0.18310 45139 ft 513 kts 294°
2026-05-08 20:38 53.38178 -0.28990 45131 ft 513 kts 294°
2026-05-08 20:38 53.41292 -0.39673 45132 ft 512 kts 294°
2026-05-08 20:39 53.44383 -0.50439 45154 ft 512 kts 294°
2026-05-08 20:39 53.47463 -0.61128 45154 ft 512 kts 294°
2026-05-08 20:40 53.50526 -0.71924 45150 ft 512 kts 294°
2026-05-08 20:40 53.53565 -0.82619 45145 ft 512 kts 294°
2026-05-08 20:41 53.56620 -0.93438 45144 ft 512 kts 294°
2026-05-08 20:41 53.59278 -1.04526 45127 ft 510 kts 283°
2026-05-08 20:42 53.60003 -1.16312 45129 ft 507 kts 266°
2026-05-08 20:42 53.58906 -1.27923 45142 ft 506 kts 258°
2026-05-08 20:43 53.57743 -1.39609 45135 ft 507 kts 261°
2026-05-08 20:43 53.56609 -1.51302 45139 ft 507 kts 259°
2026-05-08 20:44 53.55400 -1.62978 45132 ft 507 kts 260°
2026-05-08 20:44 53.54242 -1.74668 45132 ft 507 kts 259°
2026-05-08 20:45 53.53062 -1.86262 45110 ft 507 kts 262°
2026-05-08 20:45 53.52899 -1.90213 45086 ft 494 kts 268°
2026-05-08 20:45 53.53167 -1.97706 44328 ft 475 kts 275°
2026-05-08 20:45 53.53541 -2.03074 44322 ft 452 kts 275°
2026-05-08 20:46 53.53843 -2.08252 43752 ft 441 kts 273°
2026-05-08 20:46 53.54088 -2.13375 42833 ft 438 kts 273°
2026-05-08 20:46 53.54354 -2.18465 41950 ft 435 kts 274°
2026-05-08 20:46 53.54653 -2.23509 41083 ft 432 kts 274°
2026-05-08 20:47 53.54939 -2.28517 40207 ft 428 kts 274°
2026-05-08 20:47 53.55194 -2.33412 39355 ft 425 kts 273°
2026-05-08 20:47 53.55451 -2.38343 38404 ft 421 kts 273°
2026-05-08 20:47 53.55715 -2.43229 37192 ft 418 kts 274°
2026-05-08 20:48 53.55977 -2.48091 35931 ft 417 kts 273°
2026-05-08 20:48 53.56230 -2.52937 34673 ft 415 kts 273°
2026-05-08 20:48 53.56479 -2.57770 33250 ft 414 kts 273°
2026-05-08 20:48 53.56730 -2.62598 31502 ft 417 kts 272°
2026-05-08 20:49 53.56982 -2.67518 29793 ft 427 kts 272°
2026-05-08 20:49 53.57228 -2.72324 29118 ft 408 kts 272°
2026-05-08 20:49 53.57466 -2.76941 29115 ft 391 kts 271°
2026-05-08 20:50 53.57920 -2.86251 29121 ft 402 kts 271°
2026-05-08 20:50 53.58387 -2.95644 29127 ft 403 kts 271°
2026-05-08 20:51 53.58838 -3.05057 29117 ft 404 kts 271°
2026-05-08 20:51 53.59267 -3.14417 29120 ft 404 kts 271°
2026-05-08 20:52 53.59702 -3.23864 29126 ft 412 kts 271°
2026-05-08 20:52 53.60152 -3.33455 28492 ft 395 kts 271°
2026-05-08 20:52 53.60361 -3.38171 27416 ft 411 kts 271°
2026-05-08 20:53 53.60569 -3.42949 26899 ft 409 kts 271°
2026-05-08 20:53 53.60785 -3.47727 26395 ft 409 kts 271°
2026-05-08 20:53 53.60997 -3.52431 25907 ft 408 kts 271°
2026-05-08 20:53 53.61203 -3.57183 25426 ft 406 kts 271°
2026-05-08 20:54 53.61416 -3.61908 24949 ft 404 kts 272°
2026-05-08 20:54 53.62078 -3.66521 24424 ft 409 kts 287°
2026-05-08 20:54 53.63426 -3.70760 23926 ft 413 kts 300°
2026-05-08 20:54 53.65080 -3.74701 23433 ft 411 kts 301°
2026-05-08 20:55 53.66733 -3.78616 22898 ft 408 kts 301°
2026-05-08 20:55 53.68358 -3.82526 22393 ft 406 kts 301°
2026-05-08 20:55 53.69966 -3.86420 21865 ft 403 kts 301°
2026-05-08 20:55 53.71550 -3.90234 21351 ft 401 kts 301°
2026-05-08 20:56 53.73147 -3.94072 20831 ft 398 kts 301°
2026-05-08 20:56 53.74728 -3.97890 20316 ft 396 kts 301°
2026-05-08 20:56 53.76297 -4.01695 19693 ft 392 kts 301°
2026-05-08 20:56 53.77853 -4.05462 19089 ft 389 kts 301°
2026-05-08 20:57 53.79395 -4.09205 18437 ft 387 kts 301°
2026-05-08 20:57 53.80927 -4.12926 17711 ft 383 kts 301°
2026-05-08 20:57 53.82439 -4.16605 16990 ft 379 kts 301°
2026-05-08 20:57 53.83932 -4.20247 16288 ft 374 kts 302°
2026-05-08 20:58 53.85411 -4.23851 15604 ft 371 kts 302°
2026-05-08 20:58 53.86855 -4.27377 14944 ft 368 kts 302°
2026-05-08 20:58 53.88304 -4.30921 14278 ft 364 kts 302°
2026-05-08 20:58 53.89740 -4.34438 13588 ft 361 kts 302°
2026-05-08 20:59 53.91164 -4.37927 12866 ft 358 kts 302°
2026-05-08 20:59 53.92576 -4.41395 12160 ft 355 kts 303°
2026-05-08 20:59 53.93960 -4.44796 11468 ft 342 kts 303°
2026-05-08 20:59 53.95279 -4.48040 10786 ft 326 kts 302°
2026-05-08 21:00 53.96448 -4.51236 10096 ft 312 kts 295°
2026-05-08 21:00 53.97317 -4.54547 9354 ft 302 kts 290°
2026-05-08 21:00 53.98091 -4.57783 8566 ft 294 kts 291°
2026-05-08 21:00 53.98941 -4.60865 7790 ft 288 kts 294°
2026-05-08 21:01 53.99707 -4.63975 7076 ft 282 kts 284°
2026-05-08 21:01 54.00105 -4.67170 6576 ft 273 kts 279°
2026-05-08 21:01 54.00417 -4.70334 6070 ft 271 kts 278°
2026-05-08 21:01 54.00722 -4.73489 5552 ft 270 kts 278°
2026-05-08 21:02 54.01010 -4.76645 5056 ft 270 kts 278°
2026-05-08 21:02 54.01273 -4.79792 4539 ft 269 kts 278°
2026-05-08 21:02 54.01515 -4.82941 4022 ft 267 kts 279°
2026-05-08 21:02 54.01739 -4.86078 3529 ft 269 kts 279°
2026-05-08 21:03 54.02208 -4.89065 2921 ft 264 kts 304°
2026-05-08 21:03 54.03527 -4.90920 2764 ft 239 kts 343°
2026-05-08 21:03 54.05147 -4.90970 2823 ft 234 kts 15°
2026-05-08 21:03 54.06578 -4.89612 2933 ft 239 kts 40°
2026-05-08 21:04 54.07544 -4.87277 2984 ft 248 kts 69°
2026-05-08 21:04 54.07604 -4.84356 2732 ft 247 kts 96°
2026-05-08 21:04 54.07198 -4.81648 2728 ft 235 kts 102°
2026-05-08 21:04 54.06754 -4.78920 2734 ft 241 kts 102°
2026-05-08 21:05 54.06551 -4.76081 2636 ft 241 kts 82°
2026-05-08 21:05 54.06938 -4.73411 1976 ft 218 kts 74°
2026-05-08 21:05 54.07238 -4.71113 1264 ft 195 kts 76°
2026-05-08 21:05 54.07466 -4.68966 798 ft 167 kts 76°
2026-05-08 21:06 54.07688 -4.67211 536 ft 137 kts 72°
2026-05-08 21:06 54.07889 -4.65730 347 ft 125 kts 70°
2026-05-08 21:06 54.08081 -4.64347 176 ft 114 kts 71°
2026-05-08 21:06 54.08253 -4.63087 38 ft 102 kts 73°
2026-05-08 21:07 54.08369 -4.62121 28 ft 60 kts 78°
2026-05-08 21:07 54.08437 -4.61560 25 ft 42 kts 78°
2026-05-08 21:07 54.08463 -4.61399 20 ft 2 kts 346°
2026-05-08 21:07 54.08507 -4.61441 21 ft 12 kts 327°
2026-05-08 21:08 54.08536 -4.61548 22 ft 9 kts 274°
2026-05-08 21:08 54.08539 -4.61614 23 ft 0 kts 276°
2026-05-08 21:09 54.08541 -4.61637 25 ft 0 kts 276°
2026-05-08 21:10 54.08544 -4.61700 24 ft 14 kts 276°
2026-05-08 21:10 54.08552 -4.61854 28 ft 14 kts 269°
2026-05-08 21:11 54.08535 -4.62037 31 ft 15 kts 260°
2026-05-08 21:11 54.08507 -4.62268 35 ft 21 kts 258°
2026-05-08 21:11 54.08475 -4.62498 36 ft 20 kts 257°
2026-05-08 21:11 54.08437 -4.62800 35 ft 33 kts 258°
2026-05-08 21:12 54.08397 -4.63173 35 ft 24 kts 272°
2026-05-08 21:12 54.08468 -4.63349 36 ft 16 kts 347°
2026-05-08 21:12 54.08547 -4.63373 37 ft 10 kts 316°
2026-05-08 21:12 54.08589 -4.63410 37 ft 5 kts 33°
2026-05-08 21:13 54.08604 -4.63384 37 ft 1 kts 50°
2026-05-08 21:13 54.08606 -4.63380 37 ft 0 kts 49°